Weather History for Casper, WY

Change the Weather History Date:

Sunday, June 16, 2013

  Actual Average Record
Temperature  
Mean Temperature 65 °F 62 °F  
Max Temperature 87 °F 79 °F 94 °F (1988)
Min Temperature 43 °F 46 °F 35 °F (2001)
Degree Days  
Heating Degree Days 0 4  
Month to date heating degree days 67 99  
Since 1 June heating degree days 67 99  
Since 1 July heating degree days 7266 7543  
Cooling Degree Days 0 2  
Month to date cooling degree days 21 16  
Year to date cooling degree days 31 20  
Since 1 June cooling degree days 21 16  
Growing Degree Days 16 (Base 50)    
Moisture  
Dew Point 33 °F    
Average Humidity 46    
Maximum Humidity 82    
Minimum Humidity 10    
Precipitation  
Precipitation T in 0.06 in 2.12 in (2003)
Month to date precipitation 0.30 0.94  
Year to date precipitation 6.27 6.15  
Snow  
Snow 0.00 in 0.00 in - ()
Month to date snowfall 0.0 0.1  
Since 1 June snowfall 0.0 0.1  
Since 1 July snowfall 85.7 74.9  
Snow Depth 0.00 in    
Sea Level Pressure  
Sea Level Pressure 29.92 in    
Wind  
Wind Speed 7 mph (North)    
Max Wind Speed 24 mph    
Max Gust Speed 29 mph    
Visibility 10 miles    
Events Rain    
T = Trace of Precipitation, MM = Missing Value Source: NWS Daily Summary

Daily Weather History Graph

Daily Weather History Graph

Search for Another Location

Airport:

Trip Planner

Search our weather history database for the weather conditions in past years. The results will help you decide how hot, cold, wet, or windy it might be!

Date:

Astronomy

Jun. 16, 2013 Rise Set
Actual Time 5:26 AM MDT 8:46 PM MDT
Civil Twilight 4:51 AM MDT 9:22 PM MDT
Nautical Twilight 4:05 AM MDT 10:08 PM MDT
Astronomical Twilight 3:09 AM MDT 11:04 PM MDT
Moon 1:16 PM MDT 12:43 AM MDT
Length of Visible Light 16h 30m
Length of Day
15h 20m
Waxing Crescent, 50% of the Moon is Illuminated
Jun 16
Waxing Crescent
Jun 23
Full
Jun 29
Last Quarter
Jul 8
New
Jul 15
First Quarter

Hourly Weather History & Observations

Time (MDT) Temp. Windchill Dew Point Humidity Pressure Visibility Wind Dir Wind Speed Gust Speed Precip Events Conditions
12:53 AM 53.1 °F - 36.0 °F 52% 29.92 in 10.0 mi NW 10.4 mph - N/A   Clear
1:53 AM 51.1 °F - 37.0 °F 59% 29.92 in 10.0 mi West 3.5 mph - N/A   Clear
2:53 AM 46.9 °F - 37.9 °F 71% 29.94 in 10.0 mi WSW 3.5 mph - N/A   Clear
3:53 AM 46.9 °F - 37.0 °F 68% 29.95 in 10.0 mi West 4.6 mph - N/A   Clear
4:53 AM 43.0 °F 40.3 °F 37.0 °F 80% 29.96 in 10.0 mi West 4.6 mph - N/A   Clear
5:53 AM 44.1 °F 40.1 °F 37.0 °F 76% 29.96 in 10.0 mi WSW 6.9 mph - N/A   Clear
6:53 AM 52.0 °F - 39.0 °F 61% 29.96 in 10.0 mi WSW 5.8 mph - N/A   Clear
7:53 AM 62.1 °F - 37.0 °F 39% 29.95 in 10.0 mi WNW 4.6 mph - N/A   Clear
8:53 AM 66.0 °F - 37.9 °F 36% 29.95 in 10.0 mi Variable 3.5 mph - N/A   Clear
9:53 AM 69.1 °F - 37.9 °F 32% 29.95 in 10.0 mi Calm Calm - N/A   Clear
10:53 AM 73.0 °F - 36.0 °F 26% 29.94 in 10.0 mi Calm Calm - N/A   Clear
11:53 AM 77.0 °F - 32.0 °F 19% 29.95 in 10.0 mi ESE 4.6 mph - N/A   Clear
12:53 PM 80.1 °F - 28.0 °F 15% 29.93 in 10.0 mi Variable 4.6 mph - N/A   Clear
1:53 PM 80.1 °F - 27.0 °F 14% 29.91 in 10.0 mi Variable 4.6 mph - N/A   Clear
2:53 PM 81.0 °F - 26.1 °F 13% 29.90 in 10.0 mi SE 9.2 mph - N/A   Clear
3:53 PM 84.0 °F - 25.0 °F 12% 29.86 in 10.0 mi SSE 8.1 mph - N/A   Clear
4:53 PM 82.0 °F - 19.0 °F 10% 29.87 in 10.0 mi NE 13.8 mph 23.0 mph N/A   Clear
5:53 PM 82.0 °F - 19.9 °F 10% 29.87 in 10.0 mi NE 3.5 mph - N/A   Clear
6:53 PM 80.1 °F - 21.0 °F 11% 29.87 in 10.0 mi ENE 8.1 mph - N/A   Clear
7:53 PM 77.0 °F - 25.0 °F 15% 29.87 in 10.0 mi East 8.1 mph - N/A   Partly Cloudy
8:53 PM 75.0 °F - 25.0 °F 16% 29.88 in 10.0 mi NE 13.8 mph - N/A   Partly Cloudy
9:53 PM 72.0 °F - 37.9 °F 29% 29.90 in 10.0 mi NNE 9.2 mph - N/A   Partly Cloudy
10:53 PM 66.9 °F - 42.1 °F 40% 29.94 in 10.0 mi NNE 18.4 mph 26.5 mph N/A   Scattered Clouds
11:53 PM 64.0 °F - 42.1 °F 45% 29.96 in 10.0 mi North 17.3 mph 25.3 mph 0.00 in Rain Light Rain